TimePDT,TemperatureF,Dew PointF,Humidity,Sea Level PressureIn,VisibilityMPH,Wind Direction,Wind SpeedMPH,Gust SpeedMPH,PrecipitationIn,Events,Conditions,WindDirDegrees,DateUTC
12:53 AM,69.1,44.1,40,29.99,4.0,Calm,Calm,-,N/A,,Smoke,0,2013-07-30 07:53:00
1:53 AM,66.0,44.1,45,30.00,4.0,NNE,4.6,-,N/A,,Smoke,20,2013-07-30 08:53:00
2:53 AM,64.0,43.0,46,30.01,10.0,Calm,Calm,-,N/A,,Smoke,0,2013-07-30 09:53:00
3:53 AM,62.1,44.1,52,30.01,5.0,Calm,Calm,-,N/A,,Smoke,0,2013-07-30 10:53:00
4:53 AM,60.1,45.0,57,30.03,10.0,Calm,Calm,-,N/A,,Smoke,0,2013-07-30 11:53:00
5:53 AM,60.1,45.0,57,30.04,7.0,Calm,Calm,-,N/A,,Mostly Cloudy,0,2013-07-30 12:53:00
6:53 AM,59.0,45.0,60,30.06,5.0,Calm,Calm,-,N/A,,Haze,0,2013-07-30 13:53:00
7:53 AM,61.0,46.0,58,30.07,3.0,Calm,Calm,-,N/A,,Haze,0,2013-07-30 14:53:00
8:53 AM,63.0,45.0,52,30.08,4.0,Variable,3.5,-,N/A,,Haze,0,2013-07-30 15:53:00
9:53 AM,66.9,45.0,45,30.08,4.0,Calm,Calm,-,N/A,,Smoke,0,2013-07-30 16:53:00
10:53 AM,71.1,45.0,39,30.06,4.0,Calm,Calm,-,N/A,,Haze,0,2013-07-30 17:53:00
11:53 AM,75.9,46.0,35,30.05,4.0,Calm,Calm,-,N/A,,Haze,0,2013-07-30 18:53:00
12:53 PM,80.1,46.0,30,30.02,4.0,Calm,Calm,-,N/A,,Haze,0,2013-07-30 19:53:00
1:53 PM,84.0,46.0,26,30.01,3.0,Calm,Calm,-,N/A,,Haze,0,2013-07-30 20:53:00
2:53 PM,88.0,39.0,18,29.99,2.0,NW,11.5,-,N/A,,Haze,320,2013-07-30 21:53:00
3:00 PM,87.8,39.2,18,30.02,1.5,WNW,10.4,-,N/A,,Haze,290,2013-07-30 22:00:00
3:53 PM,88.0,42.1,20,29.98,1.2,NW,12.7,-,N/A,,Haze,310,2013-07-30 22:53:00
4:53 PM,89.1,39.9,18,29.98,1.0,NW,8.1,-,N/A,,Haze,320,2013-07-30 23:53:00
5:53 PM,87.1,46.9,25,29.98,1.0,NW,6.9,-,N/A,,Haze,320,2013-07-31 00:53:00
6:00 PM,87.8,46.4,24,30.01,0.5,NNW,8.1,-,N/A,,Haze,330,2013-07-31 01:00:00
6:53 PM,84.0,50.0,31,29.99,0.5,West,8.1,-,N/A,,Haze,280,2013-07-31 01:53:00
7:51 PM,82.4,51.8,35,30.03,0.2,NNW,5.8,-,N/A,,Haze,340,2013-07-31 02:51:00
7:53 PM,82.0,51.1,34,30.01,0.2,NNW,6.9,-,N/A,,Haze,340,2013-07-31 02:53:00
8:53 PM,79.0,46.9,32,30.03,2.0,North,3.5,-,N/A,,Haze,350,2013-07-31 03:53:00
9:53 PM,77.0,46.9,34,30.05,2.0,Calm,Calm,-,N/A,,Haze,0,2013-07-31 04:53:00
10:00 PM,75.2,46.4,36,30.08,5.0,Calm,Calm,-,N/A,,Haze,0,2013-07-31 05:00:00
10:53 PM,75.0,46.9,37,30.05,5.0,NE,3.5,-,N/A,,Haze,50,2013-07-31 05:53:00